Regional Weather Roundup
Issued by NWS

Home | Current Version | Previous Version | Text Only | Print | Product List | Glossary On
Versions: 1 2 3 4 5 6 7 8 9 10 11 12 13 14 15 16 17 18 19 20 21 22 23 24 25 26 27 28 29 30 31 32 33 34 35 36 37 38 39 40 41 42 43 44 45 46 47 48 49 50
922
ASUS43 KBIS 091202
RWRND

NORTH DAKOTA REGIONAL WEATHER ROUNDUP
NATIONAL WEATHER SERVICE BISMARCK ND
600 AM CST TUE FEB 09 2016

NOTE: "FAIR" INDICATES FEW OR NO CLOUDS BELOW 12,000 FEET WITH NO
SIGNIFICANT WEATHER AND/OR OBSTRUCTIONS TO VISIBILITY.


NDZ001>003-009>011-017-091300-
NORTHWEST NORTH DAKOTA

CITY           SKY/WX    TMP DP  RH WIND       PRES   REMARKS
WILLISTON      CLOUDY    27  21  78 NE5       30.20R
6HR MIN TEMP:  27; 6HR MAX TEMP:  30;

MINOT          CLOUDY    26   9  48 SW9       30.21S WCI  17
MINOT AFB      CLOUDY    23  12  63 CALM      30.20S
$$

NDZ018>021-031>035-040>046-091300-
SOUTHWEST NORTH DAKOTA

CITY           SKY/WX    TMP DP  RH WIND       PRES   REMARKS
BISMARCK       CLOUDY    25  12  58 W5        30.27R WCI  19
6HR MIN TEMP:  25; 6HR MAX TEMP:  26;

DICKINSON      CLOUDY    23  17  78 S7        30.16F WCI  15
GARRISON         N/A     21  14  74 SW5       30.23R WCI  15
6HR MIN TEMP:  21; 6HR MAX TEMP:  23;

HETTINGER ARPT CLOUDY    27  16  63 S5        30.20S
$$

NDZ004>008-012>016-024-026-027-054-091300-
NORTHEAST NORTH DAKOTA

CITY           SKY/WX    TMP DP  RH WIND       PRES   REMARKS
GRAND FORKS    CLOUDY    11   4  73 N13       30.28R WCI  -4
GRND FRKS AFB  CLOUDY    10   4  74 N10       30.27R WCI  -3
DEVILS LAKE    CLOUDY    14  10  84 NW3       30.24R
$$

NDZ022-023-025-028>030-036>039-047>053-091300-
SOUTHEAST NORTH DAKOTA

CITY           SKY/WX    TMP DP  RH WIND       PRES   REMARKS
FARGO          CLOUDY     8   2  76 NW10      30.25S WCI  -6
6HR MIN TEMP:   4; 6HR MAX TEMP:   8;

JAMESTOWN      CLOUDY    14   8  77 NW7       30.24R WCI   4
$$





USA.gov is the U.S. government's official web portal to all federal, state and local government web resources and services.